FW5161 Weather Reports


Display with metric or nautical units.
time (UTC)temp
F
wind
direction
speed
MPH
gust
MPH
rain 1hr
in
rain 24hr
in
rain mn
in
humidity
%
barometer
mb
20260508003911 61 314 2.0 5.0 0.00 0.00 0.00 70 1016.5
20260508003411 61 314 2.0 4.0 0.00 0.00 0.00 72 1016.5
20260508002912 61 295 2.0 4.0 0.00 0.00 0.00 71 1016.5
20260508002409 60 177 3.0 7.0 0.00 0.00 0.00 71 1016.6
20260508001910 60 312 3.0 7.0 0.00 0.00 0.00 72 1016.7
20260508001635 60 228 3.0 6.0 0.00 0.00 0.00 71 1016.7
20260508000908 60 302 3.0 6.0 0.00 0.00 0.00 69 1016.7
20260508000408 61 247 3.0 6.0 0.00 0.00 0.00 69 1016.7
20260507235907 61 250 4.0 6.0 0.00 0.00 0.00 70 1016.7
20260507235408 62 253 3.0 6.0 0.00 0.00 0.00 70 1016.6
20260507234908 61 285 3.0 5.0 0.00 0.00 0.00 70 1016.6
20260507234409 60 270 3.0 7.0 0.00 0.00 0.00 72 1016.6
20260507234137 60 285 3.0 7.0 0.00 0.00 0.00 72 1016.6
20260507233404 60 263 3.0 6.0 0.00 0.00 0.00 73 1016.7
20260507232903 60 239 4.0 8.0 0.00 0.00 0.00 71 1016.7
20260507232404 60 201 3.0 8.0 0.00 0.00 0.00 70 1016.7
20260507232127 60 241 3.0 6.0 0.00 0.00 0.00 71 1016.7
20260507231404 61 253 3.0 6.0 0.00 0.00 0.00 69 1016.8
20260507230904 61 205 3.0 7.0 0.00 0.00 0.00 70 1016.9
20260507230404 61 318 3.0 7.0 0.00 0.00 0.00 72 1017.0
20260507225905 61 312 3.0 6.0 0.00 0.00 0.00 73 1017.0
20260507225402 61 232 4.0 8.0 0.00 0.00 0.00 71 1017.1
20260507224859 60 262 4.0 8.0 0.00 0.00 0.00 72 1017.2
20260507224625 61 204 4.0 7.0 0.00 0.00 0.00 70 1017.0
20260507223858 61 274 3.0 7.0 0.00 0.00 0.00 71 1017.2
20260507223354 62 272 3.0 8.0 0.00 0.00 0.00 68 1017.3
20260507222854 62 261 4.0 8.0 0.00 0.00 0.00 72 1017.3
20260507222355 61 295 4.0 8.0 0.00 0.00 0.00 73 1017.4
20260507221854 61 285 4.0 8.0 0.00 0.00 0.00 71 1017.4
20260507221351 61 303 4.0 8.0 0.00 0.00 0.00 72 1017.4
20260507220852 62 207 3.0 8.0 0.00 0.00 0.00 68 1017.6
20260507220352 63 300 3.0 8.0 0.00 0.00 0.00 69 1017.7
20260507215852 60 247 3.0 9.0 0.00 0.00 0.00 75 1017.8
20260507214849 62 295 4.0 8.0 0.00 0.00 0.00 71 1017.9
20260507214350 62 328 4.0 9.0 0.00 0.00 0.00 70 1017.9
20260507213849 63 248 4.0 9.0 0.00 0.00 0.00 71 1017.9
20260507213347 62 285 4.0 8.0 0.00 0.00 0.00 69 1017.9
20260507212845 60 232 4.0 8.0 0.00 0.00 0.00 72 1018.0
20260507212345 60 270 4.0 8.0 0.00 0.00 0.00 74 1018.0
20260507211842 60 276 4.0 9.0 0.00 0.00 0.00 74 1018.0
20260507211342 60 285 4.0 9.0 0.00 0.00 0.00 75 1018.0
20260507210835 60 239 3.0 5.0 0.00 0.00 0.00 77 1018.1
20260507210337 59 272 3.0 6.0 0.00 0.00 0.00 78 1018.1
20260507205835 58 230 3.0 8.0 0.00 0.00 0.00 80 1018.2
20260507205336 58 247 3.0 8.0 0.00 0.00 0.00 78 1018.2
20260507205105 60 235 4.0 8.0 0.00 0.00 0.00 75 1018.2
20260507204334 60 322 4.0 8.0 0.00 0.00 0.00 75 1018.4
20260507203837 61 339 3.0 8.0 0.00 0.00 0.00 78 1018.5
20260507203603 59 243 4.0 8.0 0.00 0.00 0.00 77 1018.4
20260507202831 59 320 3.0 7.0 0.00 0.00 0.00 78 1018.5
20260507202551 58 285 2.0 5.0 0.00 0.00 0.00 79 1018.6
20260507202332 58 285 2.0 5.0 0.00 0.00 0.00 79 1018.6
20260507201832 57 337 2.0 7.0 0.00 0.00 0.00 80 1018.6
20260507201329 58 330 3.0 7.0 0.00 0.00 0.00 76 1018.7
20260507200830 60 343 3.0 5.0 0.00 0.00 0.00 77 1018.7
20260507200329 58 314 3.0 5.0 0.00 0.00 0.00 81 1018.7
20260507195830 57 311 2.0 5.0 0.00 0.00 0.00 79 1018.7
20260507195329 58 318 2.0 5.0 0.00 0.00 0.00 79 1018.7
20260507195100 58 333 2.0 5.0 0.00 0.00 0.00 80 1018.8
20260507193832 57 323 2.0 5.0 0.00 0.00 0.00 81 1018.8
20260507193323 57 306 2.0 5.0 0.00 0.00 0.00 81 1018.8
20260507192823 57 354 3.0 7.0 0.00 0.00 0.00 82 1018.9
20260507192321 56 336 3.0 8.0 0.00 0.00 0.00 83 1019.0
20260507191819 56 301 3.0 8.0 0.00 0.00 0.00 82 1019.0
20260507191323 56 309 2.0 7.0 0.00 0.00 0.00 81 1019.0
20260507190820 57 307 2.0 7.0 0.00 0.00 0.00 81 1019.0
20260507190317 56 314 1.0 5.0 0.00 0.00 0.00 83 1019.0
20260507185815 55 8 1.0 3.0 0.00 0.00 0.00 84 1019.2
20260507185315 55 107 1.0 3.0 0.00 0.00 0.00 84 1019.2
20260507184815 55 103 1.0 3.0 0.00 0.00 0.00 84 1019.2
20260507184314 55 310 2.0 6.0 0.00 0.00 0.00 84 1019.2
20260507183813 54 308 3.0 6.0 0.00 0.00 0.00 84 1019.3
20260507183314 55 304 2.0 5.0 0.00 0.00 0.00 84 1019.3
20260507183035 55 328 2.0 4.0 0.00 0.00 0.00 84 1019.3
20260507182313 55 316 2.0 4.0 0.00 0.00 0.00 84 1019.3
20260507181811 54 328 2.0 4.0 0.00 0.00 0.00 84 1019.3
20260507181308 54 319 2.0 4.0 0.00 0.00 0.00 85 1019.4
20260507180809 54 309 2.0 4.0 0.00 0.00 0.00 84 1019.4
20260507180310 55 285 3.0 5.0 0.00 0.00 0.00 84 1019.4
20260507175809 54 295 2.0 5.0 0.00 0.00 0.00 85 1019.4
20260507175042 54 332 2.0 4.0 0.00 0.00 0.00 84 1019.4
20260507174310 54 295 2.0 4.0 0.00 0.00 0.00 85 1019.4
20260507173809 54 319 2.0 4.0 0.00 0.00 0.00 84 1019.5
20260507173307 54 327 2.0 5.0 0.00 0.00 0.00 85 1019.4
20260507173040 54 310 2.0 5.0 0.00 0.00 0.00 84 1019.4
20260507172537 54 311 2.0 4.0 0.00 0.00 0.00 85 1019.2
20260507171305 54 305 2.0 4.0 0.00 0.00 0.00 85 1019.2
20260507170804 53 236 2.0 4.0 0.00 0.00 0.00 84 1019.2
20260507170305 54 295 2.0 3.0 0.00 0.00 0.00 84 1019.1
20260507165804 54 300 2.0 4.0 0.00 0.00 0.00 85 1019.2
20260507165306 54 316 2.0 4.0 0.00 0.00 0.00 84 1019.1
20260507164803 54 310 1.0 4.0 0.00 0.00 0.00 84 1019.2
20260507164303 54 290 1.0 3.0 0.00 0.00 0.00 85 1019.1
20260507163804 53 232 1.0 3.0 0.00 0.00 0.00 85 1019.2
20260507163534 53 214 1.0 2.0 0.00 0.00 0.00 85 1019.1
20260507162802 53 224 1.0 3.0 0.00 0.00 0.00 85 1019.1
20260507162306 53 224 1.0 3.0 0.00 0.00 0.00 84 1019.3
20260507161803 53 220 2.0 4.0 0.00 0.00 0.00 83 1019.2
20260507161302 54 213 2.0 4.0 0.00 0.00 0.00 83 1019.3
20260507160802 53 274 2.0 4.0 0.00 0.00 0.00 81 1019.2
20260507160304 53 330 1.0 3.0 0.00 0.00 0.00 82 1019.2
20260507155803 53 219 2.0 4.0 0.00 0.00 0.00 83 1019.2
20260507154807 53 255 2.0 5.0 0.00 0.00 0.00 83 1019.3
20260507154605 53 243 2.0 5.0 0.00 0.00 0.00 82 1019.4
20260507153804 53 244 2.0 5.0 0.00 0.00 0.00 81 1019.5
20260507153303 54 290 3.0 7.0 0.00 0.00 0.00 80 1019.6
20260507153034 54 272 3.0 8.0 0.00 0.00 0.00 79 1019.6
20260507152301 53 259 4.0 10.0 0.00 0.00 0.00 78 1019.5
20260507151800 53 209 4.0 10.0 0.00 0.00 0.00 79 1019.6
20260507151301 53 139 4.0 10.0 0.00 0.00 0.00 78 1019.5
20260507150254 53 171 3.0 7.0 0.00 0.00 0.00 80 1019.5
20260507145749 53 254 3.0 7.0 0.00 0.00 0.00 81 1019.6
20260507145242 53 231 2.0 5.0 0.00 0.00 0.00 82 1019.6
20260507144742 52 228 1.0 5.0 0.00 0.00 0.00 83 1019.6
20260507144243 52 252 0.0 4.0 0.00 0.00 0.00 84 1019.6
20260507143740 52 99 0.0 0.0 0.00 0.00 0.00 85 1019.6
20260507143520 52 97 0.0 1.0 0.00 0.00 0.00 85 1019.6
20260507142736 52 97 0.0 3.0 0.00 0.00 0.00 84 1019.5
20260507142235 52 97 1.0 3.0 0.00 0.00 0.00 84 1019.5
20260507142010 52 86 1.0 3.0 0.00 0.00 0.00 84 1019.4
20260507141231 53 65 1.0 3.0 0.00 0.00 0.00 84 1019.5
20260507141007 53 103 1.0 5.0 0.00 0.00 0.00 83 1019.4
20260507140229 53 103 1.0 5.0 0.00 0.00 0.00 83 1019.5
20260507135730 53 359 0.0 2.0 0.00 0.00 0.00 83 1019.4
20260507135229 53 359 0.0 2.0 0.00 0.00 0.00 82 1019.4
20260507134729 53 336 1.0 4.0 0.00 0.00 0.00 83 1019.3
20260507134230 52 336 1.0 4.0 0.00 0.00 0.00 84 1019.3
20260507133732 52 40 1.0 2.0 0.00 0.00 0.00 84 1019.2
20260507133229 52 42 1.0 2.0 0.00 0.00 0.00 84 1019.2
20260507133002 52 40 1.0 2.0 0.00 0.00 0.00 84 1019.2
20260507132229 52 42 0.0 2.0 0.00 0.00 0.00 83 1019.0
20260507131724 52 42 0.0 3.0 0.00 0.00 0.00 83 1019.0
20260507131218 52 42 0.0 3.0 0.00 0.00 0.00 82 1018.9
20260507130948 52 43 0.0 1.0 0.00 0.00 0.00 82 1018.9
20260507130205 52 43 0.0 1.0 0.00 0.00 0.00 82 1018.9
20260507125703 52 43 0.0 2.0 0.00 0.00 0.00 82 1019.0
20260507125202 52 43 0.0 2.0 0.00 0.00 0.00 81 1018.9
20260507124703 52 43 1.0 2.0 0.00 0.00 0.00 81 1018.9
20260507124201 53 43 1.0 2.0 0.00 0.00 0.00 81 1019.0
20260507123702 53 40 1.0 3.0 0.00 0.00 0.00 81 1018.9
20260507123202 53 42 1.0 3.0 0.00 0.00 0.00 81 1018.9
20260507122701 53 349 0.0 2.0 0.00 0.00 0.00 80 1019.0
20260507122434 53 341 1.0 4.0 0.00 0.00 0.00 80 1019.0
20260507121701 53 341 2.0 8.0 0.00 0.00 0.00 79 1019.1
20260507121207 54 230 3.0 8.0 0.00 0.00 0.00 76 1019.1
20260507120704 54 259 2.0 7.0 0.00 0.00 0.00 76 1019.1
20260507120201 53 232 2.0 7.0 0.00 0.00 0.00 77 1019.1
20260507115701 53 251 1.0 3.0 0.00 0.00 0.00 78 1019.0
20260507115201 53 215 1.0 3.0 0.00 0.00 0.00 79 1019.1
20260507114701 53 215 1.0 4.0 0.00 0.00 0.00 78 1019.2
20260507114201 53 262 0.0 4.0 0.00 0.00 0.00 80 1019.2
20260507113701 53 313 0.0 3.0 0.00 0.00 0.00 80 1019.2
20260507113159 53 313 0.0 3.0 0.00 0.00 0.00 79 1019.2
20260507112921 53 351 0.0 1.0 0.00 0.00 0.00 79 1019.3
20260507112147 53 359 0.0 0.0 0.00 0.00 0.00 79 1019.3
20260507111642 53 359 0.0 0.0 0.00 0.00 0.00 79 1019.3
20260507111136 53 357 0.0 0.0 0.00 0.00 0.00 79 1019.3
20260507110903 53 355 0.0 2.0 0.00 0.00 0.00 78 1019.3
20260507110351 53 350 1.0 4.0 0.00 0.00 0.00 77 1019.1
20260507105622 54 351 2.0 8.0 0.00 0.00 0.00 77 1019.1
20260507105353 54 247 2.0 8.0 0.00 0.00 0.00 76 1019.1
20260507104620 54 295 3.0 9.0 0.00 0.00 0.00 76 1019.0
20260507104120 54 127 4.0 10.0 0.00 0.00 0.00 75 1019.0
20260507103619 54 176 7.0 15.0 0.00 0.00 0.00 76 1019.0
20260507103120 54 191 7.0 15.0 0.00 0.00 0.00 76 1019.1
20260507102620 54 190 6.0 13.0 0.00 0.00 0.00 76 1019.1
20260507102120 54 207 6.0 15.0 0.00 0.00 0.00 75 1019.1
20260507101620 54 182 6.0 15.0 0.00 0.00 0.00 75 1019.1
20260507101121 54 228 6.0 15.0 0.00 0.00 0.00 76 1019.2
20260507100624 54 174 6.0 15.0 0.00 0.00 0.00 76 1019.1
20260507100119 54 209 7.0 16.0 0.00 0.00 0.00 76 1019.1
20260507095620 54 124 8.0 19.0 0.00 0.00 0.00 75 1019.0
20260507095120 54 152 8.0 19.0 0.00 0.00 0.00 76 1019.2
20260507094620 54 119 8.0 18.0 0.00 0.00 0.00 78 1019.1
20260507094115 54 185 8.0 18.0 0.00 0.00 0.00 78 1019.1
20260507093852 54 151 7.0 16.0 0.00 0.00 0.00 78 1019.1
20260507093123 54 202 8.0 15.0 0.00 0.00 0.00 78 1019.1
20260507092620 54 134 9.0 17.0 0.00 0.00 0.00 78 1019.1
20260507092118 54 158 8.0 17.0 0.00 0.00 0.00 79 1019.2
20260507091615 54 174 8.0 16.0 0.00 0.00 0.00 78 1019.1
20260507091116 54 211 8.0 16.0 0.00 0.00 0.00 79 1019.0
20260507090616 54 96 6.0 14.0 0.00 0.00 0.00 79 1019.1
20260507090116 54 128 6.0 14.0 0.00 0.00 0.00 79 1019.1
20260507085612 55 234 7.0 14.0 0.00 0.00 0.00 79 1019.0
20260507085112 55 124 7.0 17.0 0.00 0.00 0.00 79 1019.0
20260507084611 55 99 6.0 17.0 0.00 0.00 0.00 79 1019.0
20260507084111 55 162 5.0 13.0 0.00 0.00 0.00 79 1019.0
20260507083613 55 144 6.0 15.0 0.00 0.00 0.00 79 1018.9
20260507083112 55 124 6.0 15.0 0.00 0.00 0.00 79 1019.0
20260507082612 55 184 6.0 15.0 0.00 0.00 0.00 79 1019.0
20260507082113 55 170 7.0 14.0 0.00 0.00 0.00 79 1019.0
20260507081611 55 116 8.0 16.0 0.00 0.00 0.00 79 1019.0
20260507081111 55 184 8.0 16.0 0.00 0.00 0.00 79 1019.1
20260507080341 55 135 6.0 13.0 0.00 0.00 0.00 78 1019.0
20260507075609 55 154 7.0 13.0 0.00 0.00 0.00 78 1018.9
20260507075110 55 180 6.0 13.0 0.00 0.00 0.00 78 1018.9
20260507074610 55 176 7.0 13.0 0.00 0.00 0.00 78 1018.9
20260507074110 55 138 7.0 15.0 0.00 0.00 0.00 78 1018.8
20260507073607 55 224 6.0 15.0 0.00 0.00 0.00 78 1018.8
20260507073106 55 125 5.0 12.0 0.00 0.00 0.00 79 1018.8
20260507072606 55 173 4.0 11.0 0.00 0.00 0.00 79 1018.8
20260507072324 55 139 4.0 11.0 0.00 0.00 0.00 80 1018.8
20260507071604 55 174 5.0 11.0 0.00 0.00 0.00 80 1018.7
20260507071330 55 155 6.0 14.0 0.00 0.00 0.00 80 1018.7
20260507070605 55 150 6.0 14.0 0.00 0.00 0.00 80 1018.6
20260507070101 55 170 4.0 12.0 0.00 0.00 0.00 81 1018.6
20260507065601 55 139 4.0 9.0 0.00 0.00 0.00 81 1018.5
20260507065101 55 141 3.0 7.0 0.00 0.00 0.00 82 1018.5
20260507064601 55 143 2.0 7.0 0.00 0.00 0.00 82 1018.4
20260507064102 55 156 2.0 5.0 0.00 0.00 0.00 82 1018.3
20260507063600 55 156 1.0 4.0 0.00 0.00 0.00 83 1018.3
20260507063101 55 157 2.0 8.0 0.00 0.00 0.00 84 1018.3
20260507062601 55 157 2.0 8.0 0.00 0.00 0.00 84 1018.2
20260507062101 55 170 2.0 6.0 0.00 0.00 0.00 85 1018.2
20260507061831 54 149 2.0 6.0 0.00 0.00 0.00 84 1018.1
20260507061100 55 141 1.0 4.0 0.00 0.00 0.00 84 1018.1
20260507060606 55 180 1.0 3.0 0.00 0.00 0.00 84 1018.1
20260507055600 55 165 1.0 7.0 0.00 0.00 0.00 84 1018.1
20260507055334 55 163 2.0 8.0 0.00 0.00 0.00 84 1018.2
20260507054601 55 209 2.0 10.0 0.00 0.00 0.00 84 1018.1
20260507054330 55 195 2.0 10.0 0.00 0.00 0.00 84 1018.2
20260507053604 54 136 1.0 9.0 0.00 0.00 0.00 85 1018.1
20260507053101 54 163 1.0 9.0 0.00 0.00 0.00 85 1018.0
20260507052601 54 209 0.0 0.0 0.00 0.00 0.00 85 1018.0
20260507052101 54 154 0.0 0.0 0.00 0.00 0.00 85 1018.2
20260507051602 54 162 0.0 0.0 0.00 0.00 0.00 85 1018.2
20260507051102 54 131 0.0 0.0 0.00 0.00 0.00 85 1018.2
20260507050601 54 131 0.0 2.0 0.00 0.00 0.00 85 1018.3
20260507045600 54 131 1.0 2.0 0.00 0.00 0.00 85 1018.3
20260507045338 54 131 0.0 2.0 0.00 0.00 0.00 85 1018.2
20260507044836 54 131 0.0 0.0 0.00 0.00 0.00 84 1018.3
20260507044101 54 131 1.0 3.0 0.00 0.00 0.00 84 1018.3
20260507043600 54 131 1.0 3.0 0.00 0.00 0.00 84 1018.3
20260507043058 54 131 1.0 3.0 0.00 0.00 0.00 84 1018.4
20260507042552 55 131 1.0 3.0 0.00 0.00 0.00 84 1018.4
20260507042046 55 131 1.0 5.0 0.00 0.00 0.00 83 1018.3
20260507041540 55 116 1.0 5.0 0.00 0.00 0.00 83 1018.2
20260507041034 55 103 2.0 5.0 0.00 0.00 0.00 83 1018.2
20260507040537 55 103 3.0 6.0 0.00 0.00 0.00 82 1018.1
20260507040033 55 87 2.0 6.0 0.00 0.00 0.00 82 1018.0
20260507035800 56 89 1.0 4.0 0.00 0.00 0.00 81 1018.1
20260507035029 56 154 1.0 5.0 0.00 0.00 0.00 80 1018.0
20260507034529 56 154 1.0 5.0 0.00 0.00 0.00 80 1017.9
20260507034255 56 232 1.0 3.0 0.00 0.00 0.00 79 1018.0
20260507033529 56 301 2.0 6.0 0.00 0.00 0.00 79 1018.0
20260507033029 56 268 2.0 6.0 0.00 0.00 0.00 79 1017.9
20260507032530 56 128 2.0 10.0 0.00 0.00 0.00 79 1017.8
20260507032029 56 105 2.0 10.0 0.00 0.00 0.00 79 1017.9
20260507031529 56 156 3.0 7.0 0.00 0.00 0.00 79 1017.8
20260507031303 56 158 3.0 9.0 0.00 0.00 0.00 79 1017.9
20260507030529 56 103 4.0 11.0 0.00 0.00 0.00 79 1017.9
20260507030029 56 159 7.0 15.0 0.00 0.00 0.00 79 1017.8
20260507025530 56 132 8.0 15.0 0.00 0.00 0.00 78 1017.9
20260507025029 56 128 8.0 14.0 0.00 0.00 0.00 78 1017.9
20260507024535 56 120 8.0 12.0 0.00 0.00 0.00 78 1017.8
20260507024035 56 139 7.0 12.0 0.00 0.00 0.00 78 1017.8
20260507023524 56 125 6.0 12.0 0.00 0.00 0.00 78 1017.9
20260507023019 56 119 8.0 15.0 0.00 0.00 0.00 78 1017.8
20260507022753 56 132 8.0 15.0 0.00 0.00 0.00 79 1017.8
20260507021504 56 128 8.0 18.0 0.00 0.00 0.00 79 1018.0
20260507021009 56 153 9.0 18.0 0.00 0.00 0.00 79 1018.0
20260507020506 56 134 9.0 18.0 0.00 0.00 0.00 79 1018.0
20260507020005 56 143 8.0 18.0 0.00 0.00 0.00 79 1018.0
20260507015502 56 137 7.0 17.0 0.00 0.00 0.00 79 1017.9
20260507015002 56 117 7.0 15.0 0.00 0.00 0.00 79 1018.0
20260507014502 56 99 6.0 14.0 0.00 0.00 0.00 79 1018.0
20260507014001 57 116 5.0 13.0 0.00 0.00 0.00 79 1017.9
20260507013739 57 113 5.0 15.0 0.00 0.00 0.00 79 1017.9
20260507013003 57 142 5.0 15.0 0.00 0.00 0.00 79 1017.9
20260507012502 57 224 6.0 12.0 0.00 0.00 0.00 79 1017.9
20260507012003 57 125 6.0 12.0 0.00 0.00 0.00 79 1017.9
20260507011503 57 93 6.0 12.0 0.00 0.00 0.00 79 1017.9
20260507011001 56 109 7.0 11.0 0.00 0.00 0.00 79 1017.8
20260507010503 56 136 6.0 14.0 0.00 0.00 0.00 79 1017.9
20260507010002 56 150 5.0 14.0 0.00 0.00 0.00 79 1017.9
20260507005501 56 103 4.0 12.0 0.00 0.00 0.00 79 1018.0
20260507004958 56 138 4.0 12.0 0.00 0.00 0.00 79 1018.0
20260507004458 57 124 4.0 8.0 0.00 0.00 0.00 78 1018.0